• en France
  • Liste des pays
  • À 7 jours
  • Température de l'eau
  • Carte satellitaire
  • Carte météo
  • Widgets météo
  • user-avatar
    Se connecter

    Météo par heure à Santa-fe-de Bogota

    Ce jour, 21 Février, Mercredi

    Heure Température Précipitation Vent Pression Humidité
    00:00 +10°C° 0 mm 1 m/s 549 mmHg 84%
    01:00 +8°C° 0 mm 0 m/s 548 mmHg 84%
    02:00 +9°C° 0 mm 1 m/s 548 mmHg 85%
    03:00 +9°C° 0 mm 1 m/s 548 mmHg 85%
    04:00 +9°C° 0 mm 1 m/s 548 mmHg 85%
    05:00 +9°C° 0 mm 1 m/s 548 mmHg 85%
    06:00 +10°C° 0 mm 1 m/s 549 mmHg 84%
    07:00 +10°C° 0 mm 1 m/s 549 mmHg 83%
    08:00 +12°C° 0 mm 1 m/s 550 mmHg 76%
    09:00 +14°C° 0 mm 1 m/s 552 mmHg 69%
    10:00 +15°C° 0 mm 1 m/s 553 mmHg 62%
    11:00 +16°C° 0 mm 1 m/s 553 mmHg 61%
    12:00 +16°C° 0 mm 1 m/s 552 mmHg 61%
    13:00 +16°C° 0 mm 2 m/s 552 mmHg 60%
    14:00 +16°C° 0,1 mm 1 m/s 551 mmHg 62%
    15:00 +15°C° 0,1 mm 1 m/s 550 mmHg 63%
    16:00 +15°C° 0,1 mm 1 m/s 550 mmHg 65%
    17:00 +14°C° 0,1 mm 1 m/s 549 mmHg 69%
    18:00 +12°C° 0,1 mm 1 m/s 549 mmHg 74%
    19:00 +11°C° 0,1 mm 1 m/s 548 mmHg 79%
    20:00 +11°C° 0,1 mm 1 m/s 549 mmHg 79%
    21:00 +11°C° 0,1 mm 1 m/s 549 mmHg 79%
    22:00 +10°C° 0,1 mm 1 m/s 549 mmHg 79%
    23:00 +10°C° 0,1 mm 1 m/s 549 mmHg 79%

    Demain, 22 Février, Jeudi

    Heure Température Précipitation Vent Pression Humidité
    00:00 +10°C° 0,1 mm 1 m/s 549 mmHg 79%
    01:00 +10°C° 0,1 mm 1 m/s 549 mmHg 79%
    02:00 +8°C° 0 mm 0 m/s 549 mmHg 79%
    03:00 +8°C° 0 mm 0 m/s 548 mmHg 80%
    04:00 +8°C° 0 mm 0 m/s 548 mmHg 80%
    05:00 +8°C° 0,1 mm 0 m/s 549 mmHg 79%
    06:00 +9°C° 0,1 mm 0 m/s 549 mmHg 79%
    07:00 +9°C° 0,1 mm 0 m/s 550 mmHg 78%
    08:00 +12°C° 0,1 mm 1 m/s 551 mmHg 73%
    09:00 +13°C° 0,1 mm 1 m/s 552 mmHg 69%
    10:00 +14°C° 0,1 mm 1 m/s 553 mmHg 64%
    11:00 +15°C° 0,1 mm 1 m/s 552 mmHg 63%
    12:00 +15°C° 0,1 mm 1 m/s 552 mmHg 63%
    13:00 +16°C° 0,1 mm 1 m/s 551 mmHg 62%
    14:00 +15°C° 0,3 mm 1 m/s 551 mmHg 64%
    15:00 +15°C° 0,3 mm 1 m/s 550 mmHg 66%
    16:00 +15°C° 0,3 mm 1 m/s 549 mmHg 68%
    17:00 +14°C° 0,4 mm 1 m/s 549 mmHg 72%
    18:00 +12°C° 0,4 mm 1 m/s 549 mmHg 77%
    19:00 +11°C° 0,4 mm 1 m/s 548 mmHg 81%
    20:00 +11°C° 0,2 mm 1 m/s 549 mmHg 81%
    21:00 +11°C° 0,2 mm 1 m/s 549 mmHg 81%
    22:00 +10°C° 0,2 mm 0 m/s 550 mmHg 82%
    23:00 +10°C° 0,1 mm 0 m/s 549 mmHg 82%

    Après-demain, 23 Février, Vendredi

    Heure Température Précipitation Vent Pression Humidité
    00:00 +9°C° 0,1 mm 0 m/s 549 mmHg 83%
    01:00 +9°C° 0,1 mm 0 m/s 549 mmHg 83%
    02:00 +9°C° 0,1 mm 0 m/s 548 mmHg 84%
    03:00 +9°C° 0,1 mm 0 m/s 548 mmHg 85%
    04:00 +8°C° 0,1 mm 0 m/s 548 mmHg 85%
    05:00 +9°C° 0,1 mm 0 m/s 548 mmHg 85%
    06:00 +9°C° 0,1 mm 0 m/s 549 mmHg 84%
    07:00 +9°C° 0,1 mm 0 m/s 550 mmHg 83%
    08:00 +12°C° 0 mm 1 m/s 551 mmHg 76%
    09:00 +14°C° 0 mm 1 m/s 552 mmHg 70%
    10:00 +15°C° 0 mm 1 m/s 553 mmHg 64%
    11:00 +16°C° 0,1 mm 1 m/s 552 mmHg 61%
    12:00 +18°C° 0,1 mm 1 m/s 552 mmHg 58%
    13:00 +18°C° 0,1 mm 2 m/s 552 mmHg 56%
    14:00 +17°C° 0,4 mm 2 m/s 551 mmHg 59%
    15:00 +17°C° 0,4 mm 2 m/s 550 mmHg 62%
    16:00 +16°C° 0,4 mm 1 m/s 549 mmHg 65%
    17:00 +14°C° 0,3 mm 1 m/s 549 mmHg 72%
    18:00 +13°C° 0,3 mm 1 m/s 548 mmHg 78%
    19:00 +10°C° 0,3 mm 0 m/s 548 mmHg 85%
    20:00 +11°C° 0,3 mm 1 m/s 548 mmHg 85%
    21:00 +11°C° 0,3 mm 1 m/s 548 mmHg 86%
    22:00 +10°C° 0,3 mm 1 m/s 549 mmHg 87%
    23:00 +10°C° 0,4 mm 1 m/s 548 mmHg 87%

    24 Février, Samedi

    Heure Température Précipitation Vent Pression Humidité
    00:00 +10°C° 0,4 mm 1 m/s 548 mmHg 87%
    01:00 +10°C° 0,4 mm 1 m/s 548 mmHg 87%
    02:00 +10°C° 0,2 mm 1 m/s 548 mmHg 87%
    03:00 +10°C° 0,2 mm 1 m/s 548 mmHg 87%
    04:00 +9°C° 0,2 mm 1 m/s 547 mmHg 86%
    05:00 +10°C° 0 mm 1 m/s 548 mmHg 85%
    06:00 +10°C° 0 mm 1 m/s 548 mmHg 85%
    07:00 +9°C° 0 mm 0 m/s 549 mmHg 84%
    08:00 +11°C° 0 mm 1 m/s 550 mmHg 78%
    09:00 +13°C° 0 mm 1 m/s 550 mmHg 72%
    10:00 +14°C° 0 mm 1 m/s 551 mmHg 66%
    11:00 +15°C° 0,1 mm 1 m/s 551 mmHg 62%
    12:00 +18°C° 0,1 mm 1 m/s 551 mmHg 58%
    13:00 +19°C° 0,1 mm 1 m/s 551 mmHg 55%
    14:00 +18°C° 0,4 mm 1 m/s 550 mmHg 57%
    15:00 +18°C° 0,4 mm 1 m/s 550 mmHg 60%
    16:00 +16°C° 0,4 mm 1 m/s 549 mmHg 63%
    17:00 +14°C° 0,4 mm 1 m/s 548 mmHg 69%
    18:00 +13°C° 0,4 mm 1 m/s 548 mmHg 76%
    19:00 +11°C° 0,4 mm 1 m/s 548 mmHg 83%
    20:00 +11°C° 0,5 mm 1 m/s 548 mmHg 83%
    21:00 +11°C° 0,5 mm 1 m/s 549 mmHg 84%
    22:00 +10°C° 0,5 mm 1 m/s 549 mmHg 85%
    23:00 +10°C° 0,9 mm 1 m/s 549 mmHg 86%

    25 Février, Dimanche

    Heure Température Précipitation Vent Pression Humidité
    00:00 +10°C° 0,9 mm 1 m/s 548 mmHg 86%
    01:00 +9°C° 0,9 mm 1 m/s 548 mmHg 86%
    02:00 +9°C° 0,2 mm 1 m/s 548 mmHg 86%
    03:00 +9°C° 0,2 mm 1 m/s 548 mmHg 86%
    04:00 +8°C° 0,2 mm 0 m/s 548 mmHg 86%
    05:00 +8°C° 0,1 mm 0 m/s 548 mmHg 85%
    06:00 +9°C° 0,1 mm 0 m/s 549 mmHg 83%
    07:00 +9°C° 0,1 mm 0 m/s 549 mmHg 82%
    08:00 +11°C° 0 mm 1 m/s 550 mmHg 76%
    09:00 +13°C° 0 mm 1 m/s 551 mmHg 70%
    10:00 +14°C° 0 mm 1 m/s 552 mmHg 63%
    11:00 +15°C° 0,2 mm 1 m/s 552 mmHg 61%
    12:00 +16°C° 0,2 mm 1 m/s 552 mmHg 60%
    13:00 +18°C° 0,2 mm 1 m/s 552 mmHg 58%
    14:00 +18°C° 0,5 mm 1 m/s 551 mmHg 59%
    15:00 +16°C° 0,5 mm 1 m/s 550 mmHg 61%
    16:00 +16°C° 0,5 mm 1 m/s 549 mmHg 62%
    17:00 +14°C° 0,5 mm 1 m/s 549 mmHg 69%
    18:00 +13°C° 0,5 mm 1 m/s 548 mmHg 76%
    19:00 +11°C° 0,5 mm 1 m/s 548 mmHg 83%
    20:00 +11°C° 0,4 mm 1 m/s 548 mmHg 84%
    21:00 +10°C° 0,4 mm 1 m/s 549 mmHg 84%
    22:00 +10°C° 0,4 mm 1 m/s 549 mmHg 85%
    23:00 +10°C° 0,2 mm 1 m/s 549 mmHg 85%

    26 Février, Lundi

    Heure Température Précipitation Vent Pression Humidité
    00:00 +9°C° 0,2 mm 1 m/s 548 mmHg 85%
    01:00 +8°C° 0,2 mm 0 m/s 548 mmHg 86%
    02:00 +8°C° 0,1 mm 0 m/s 548 mmHg 85%
    03:00 +8°C° 0,1 mm 0 m/s 548 mmHg 85%
    04:00 +8°C° 0,1 mm 0 m/s 548 mmHg 85%
    05:00 +8°C° 0,1 mm 0 m/s 548 mmHg 84%
    06:00 +9°C° 0,1 mm 0 m/s 549 mmHg 83%
    07:00 +9°C° 0,1 mm 0 m/s 550 mmHg 82%
    08:00 +12°C° 0 mm 1 m/s 551 mmHg 75%
    09:00 +14°C° 0 mm 1 m/s 552 mmHg 68%
    10:00 +16°C° 0 mm 1 m/s 553 mmHg 62%
    11:00 +16°C° 0,1 mm 1 m/s 552 mmHg 61%
    12:00 +16°C° 0,1 mm 1 m/s 552 mmHg 61%
    13:00 +16°C° 0,1 mm 1 m/s 551 mmHg 61%
    14:00 +16°C° 0,4 mm 1 m/s 551 mmHg 63%
    15:00 +16°C° 0,4 mm 1 m/s 550 mmHg 66%
    16:00 +16°C° 0,4 mm 1 m/s 549 mmHg 68%
    17:00 +14°C° 0,6 mm 1 m/s 549 mmHg 74%
    18:00 +12°C° 0,6 mm 1 m/s 548 mmHg 79%
    19:00 +10°C° 0,6 mm 0 m/s 548 mmHg 85%
    20:00 +10°C° 0,4 mm 0 m/s 548 mmHg 85%
    21:00 +10°C° 0,4 mm 0 m/s 549 mmHg 85%
    22:00 +9°C° 0,4 mm 0 m/s 549 mmHg 85%
    23:00 +9°C° 0,7 mm 0 m/s 549 mmHg 86%
    Voir plus